Date,TemperatureHighF,TemperatureAvgF,TemperatureLowF,DewpointHighF,DewpointAvgF,DewpointLowF,HumidityHigh,HumidityAvg,HumidityLow,PressureMaxIn,PressureMinIn,WindSpeedMaxMPH,WindSpeedAvgMPH,GustSpeedMaxMPH,PrecipitationSumIn
2013-12-1,36.2,32.0,27.4,34.9,29.1,20.3,95,89,74,30.41,30.00,3,0,3,0.06
2013-12-2,38.7,36.6,35.2,37.7,35.4,33.9,96,95,95,30.00,29.89,3,0,3,0.00
2013-12-3,47.6,37.1,29.9,39.8,33.0,28.6,96,86,62,29.93,29.83,8,0,8,0.00
2013-12-4,42.0,34.5,29.3,31.4,28.1,26.4,92,78,58,30.17,29.93,11,0,11,0.00
2013-12-5,54.6,37.5,30.8,53.4,35.1,27.4,96,91,83,30.17,29.88,13,0,13,0.01
2013-12-6,55.4,46.2,32.9,53.5,42.6,31.1,96,87,72,30.12,29.83,18,1,18,0.14
2013-12-7,36.2,31.3,24.2,31.4,26.9,17.9,94,84,69,30.43,30.04,16,0,16,0.11
2013-12-8,28.4,25.7,18.6,20.9,17.7,15.1,94,72,60,30.57,30.42,5,0,5,0.00
2013-12-9,35.5,29.1,23.2,34.2,26.8,18.4,100,91,74,30.47,29.87,12,0,12,0.00
2013-12-10,34.6,30.5,22.7,32.2,25.6,15.1,93,82,70,29.97,29.76,15,1,15,0.00
2013-12-11,28.5,23.9,18.5,20.7,17.2,13.9,83,75,62,30.16,29.97,21,3,21,0.00
2013-12-12,23.7,18.0,10.6,18.1,7.8,1.9,85,65,42,30.25,30.02,14,1,14,0.00
2013-12-13,27.4,19.2,12.2,18.4,11.8,6.8,87,72,63,30.37,29.96,20,2,20,0.00
2013-12-14,14.6,11.2,8.4,12.0,3.7,-3.4,89,72,49,30.58,30.15,5,1,6,0.00
2013-12-15,27.1,21.9,14.5,24.0,19.0,11.9,100,88,80,30.15,29.45,12,2,12,0.00
2013-12-16,25.8,21.3,14.9,20.7,11.6,5.1,89,66,48,30.17,29.71,19,2,19,0.00
2013-12-17,17.9,9.0,-0.5,15.4,5.2,-4.2,90,84,65,30.25,29.96,9,1,9,0.00
2013-12-18,31.2,24.9,17.6,22.2,19.7,15.1,91,81,67,30.05,29.88,16,1,16,0.00
2013-12-19,39.6,32.6,21.5,27.6,23.4,17.7,86,69,55,30.08,29.93,21,2,21,0.05
2013-12-20,51.7,40.0,30.7,34.9,30.9,25.8,84,71,50,30.08,29.87,13,1,13,0.43
2013-12-21,56.8,46.9,39.5,46.1,40.0,32.1,91,77,65,29.92,29.82,8,1,10,0.02
2013-12-22,51.5,40.1,32.6,49.8,38.5,31.3,95,94,89,29.99,29.76,7,0,9,0.02
2013-12-23,38.6,33.1,31.5,36.0,31.8,30.2,96,95,88,30.07,29.90,8,0,8,0.00
2013-12-24,36.2,32.4,23.1,32.9,29.9,12.6,96,91,60,30.18,29.97,12,0,12,0.00
2013-12-25,33.6,28.0,13.7,32.6,22.7,2.5,96,82,48,30.46,29.99,9,0,10,0.01
2013-12-26,33.6,33.6,33.6,32.6,32.6,32.6,96,96,96,29.99,29.99,0,0,2,0.00
2013-12-27,33.6,31.2,25.9,32.6,25.5,19.2,96,80,61,30.26,29.99,13,1,13,0.00
2013-12-28,45.0,35.4,28.5,30.5,26.1,21.8,81,69,52,30.18,29.96,23,4,23,0.02
2013-12-29,43.3,36.6,33.1,36.8,26.1,-99.9,94,75,61,29.99,29.43,16,-37,16,0.74
2013-12-30,39.6,30.7,16.1,34.4,22.6,9.0,93,73,45,30.14,29.51,18,2,18,0.05
2013-12-31,23.8,16.6,9.2,15.6,8.8,4.6,86,71,51,30.17,29.99,15,0,15,0.00